When you browse on this site, cookies collect data to enhance your experience and personalize the content and advertising you see.
Visit our Privacy Policy to learn more. By continuing to use the site, you agree to this use of cookies and data.
  • In Schweiz
  • Länderverzeichnis
  • Für 7 Tage
  • Wassertemperatur
  • Satellitenkarten
  • Wetterkarte
  • Widgets
  • user-avatar
    Anmelden

    Stündliche Wetter Murzinki

    Heute, 25 Juni, Dienstag

    Zeit Temperatur Niederschläge Wind Luftdruck Luftfeuchtigkeit
    00:00 +16°C° 0 mm 3 m/S 755 mmHg 75%
    01:00 +15°C° 0 mm 2 m/S 755 mmHg 75%
    02:00 +14°C° 0 mm 2 m/S 756 mmHg 76%
    03:00 +13°C° 0 mm 2 m/S 756 mmHg 76%
    04:00 +14°C° 0 mm 2 m/S 756 mmHg 75%
    05:00 +13°C° 0 mm 3 m/S 757 mmHg 75%
    06:00 +14°C° 0 mm 3 m/S 757 mmHg 75%
    07:00 +16°C° 0 mm 3 m/S 757 mmHg 71%
    08:00 +18°C° 0 mm 4 m/S 757 mmHg 68%
    09:00 +19°C° 0 mm 4 m/S 758 mmHg 64%
    10:00 +20°C° 0 mm 4 m/S 758 mmHg 60%
    11:00 +21°C° 0 mm 4 m/S 758 mmHg 56%
    12:00 +22°C° 0 mm 4 m/S 758 mmHg 53%
    13:00 +22°C° 0 mm 4 m/S 758 mmHg 51%
    14:00 +22°C° 0 mm 4 m/S 758 mmHg 50%
    15:00 +22°C° 0 mm 4 m/S 758 mmHg 49%
    16:00 +22°C° 0 mm 3 m/S 758 mmHg 54%
    17:00 +22°C° 0 mm 3 m/S 757 mmHg 59%
    18:00 +21°C° 0 mm 3 m/S 757 mmHg 64%
    19:00 +19°C° 0 mm 3 m/S 758 mmHg 66%
    20:00 +17°C° 0 mm 3 m/S 758 mmHg 68%
    21:00 +16°C° 0 mm 3 m/S 758 mmHg 70%
    22:00 +14°C° 0 mm 3 m/S 758 mmHg 70%
    23:00 +13°C° 0 mm 3 m/S 758 mmHg 71%

    Morgen, 26 Juni, Mittwoch

    Zeit Temperatur Niederschläge Wind Luftdruck Luftfeuchtigkeit
    00:00 +13°C° 0 mm 2 m/S 758 mmHg 72%
    01:00 +13°C° 0 mm 2 m/S 758 mmHg 75%
    02:00 +12°C° 0 mm 2 m/S 758 mmHg 77%
    03:00 +10°C° 0 mm 2 m/S 758 mmHg 80%
    04:00 +12°C° 0 mm 2 m/S 758 mmHg 79%
    05:00 +13°C° 0 mm 2 m/S 758 mmHg 78%
    06:00 +13°C° 0 mm 2 m/S 758 mmHg 77%
    07:00 +14°C° 0 mm 3 m/S 758 mmHg 72%
    08:00 +17°C° 0 mm 3 m/S 758 mmHg 67%
    09:00 +18°C° 0 mm 3 m/S 758 mmHg 62%
    10:00 +19°C° 0 mm 3 m/S 757 mmHg 58%
    11:00 +20°C° 0 mm 3 m/S 757 mmHg 54%
    12:00 +21°C° 0 mm 3 m/S 757 mmHg 50%
    13:00 +21°C° 0 mm 3 m/S 756 mmHg 51%
    14:00 +21°C° 0 mm 2 m/S 756 mmHg 52%
    15:00 +21°C° 0 mm 2 m/S 756 mmHg 53%
    16:00 +21°C° 0.1 mm 2 m/S 755 mmHg 59%
    17:00 +20°C° 0.1 mm 2 m/S 754 mmHg 65%
    18:00 +19°C° 0.1 mm 2 m/S 754 mmHg 71%
    19:00 +18°C° 0.1 mm 2 m/S 753 mmHg 75%
    20:00 +17°C° 0.1 mm 2 m/S 753 mmHg 79%
    21:00 +16°C° 0.1 mm 2 m/S 753 mmHg 83%
    22:00 +16°C° 0.3 mm 2 m/S 752 mmHg 87%
    23:00 +15°C° 0.3 mm 2 m/S 752 mmHg 90%

    übermorgen, 27 Juni, Donnerstag

    Zeit Temperatur Niederschläge Wind Luftdruck Luftfeuchtigkeit
    00:00 +15°C° 0.3 mm 2 m/S 751 mmHg 94%
    01:00 +15°C° 0.6 mm 1 m/S 751 mmHg 95%
    02:00 +15°C° 0.6 mm 1 m/S 750 mmHg 96%
    03:00 +15°C° 0.6 mm 1 m/S 750 mmHg 97%
    04:00 +14°C° 0.5 mm 1 m/S 749 mmHg 97%
    05:00 +14°C° 0.5 mm 1 m/S 749 mmHg 97%
    06:00 +14°C° 0.5 mm 1 m/S 748 mmHg 97%
    07:00 +15°C° 0.2 mm 2 m/S 747 mmHg 96%
    08:00 +15°C° 0.2 mm 2 m/S 747 mmHg 96%
    09:00 +15°C° 0.2 mm 2 m/S 747 mmHg 95%
    10:00 +14°C° 0.8 mm 3 m/S 746 mmHg 95%
    11:00 +16°C° 0.8 mm 3 m/S 745 mmHg 96%
    12:00 +16°C° 0.8 mm 3 m/S 744 mmHg 96%
    13:00 +15°C° 2.5 mm 4 m/S 744 mmHg 96%
    14:00 +15°C° 2.5 mm 5 m/S 743 mmHg 96%
    15:00 +15°C° 2.5 mm 5 m/S 743 mmHg 97%
    16:00 +16°C° 2.2 mm 5 m/S 742 mmHg 97%
    17:00 +17°C° 2.2 mm 5 m/S 741 mmHg 97%
    18:00 +17°C° 2.2 mm 5 m/S 740 mmHg 97%
    19:00 +19°C° 1.1 mm 5 m/S 739 mmHg 96%
    20:00 +19°C° 1.1 mm 5 m/S 738 mmHg 96%
    21:00 +19°C° 1.1 mm 5 m/S 738 mmHg 96%
    22:00 +19°C° 0.7 mm 5 m/S 737 mmHg 96%
    23:00 +19°C° 0.7 mm 5 m/S 736 mmHg 96%

    28 Juni, Freitag

    Zeit Temperatur Niederschläge Wind Luftdruck Luftfeuchtigkeit
    00:00 +19°C° 0.7 mm 5 m/S 736 mmHg 96%
    01:00 +19°C° 0.1 mm 5 m/S 735 mmHg 96%
    02:00 +19°C° 0.1 mm 5 m/S 735 mmHg 96%
    03:00 +19°C° 0.1 mm 5 m/S 735 mmHg 96%
    04:00 +18°C° 0.3 mm 4 m/S 735 mmHg 96%
    05:00 +18°C° 0.3 mm 4 m/S 735 mmHg 96%
    06:00 +17°C° 0.3 mm 4 m/S 734 mmHg 95%
    07:00 +17°C° 0.1 mm 4 m/S 734 mmHg 93%
    08:00 +16°C° 0.1 mm 5 m/S 734 mmHg 90%
    09:00 +16°C° 0.1 mm 5 m/S 734 mmHg 88%
    10:00 +16°C° 0.1 mm 5 m/S 734 mmHg 83%
    11:00 +17°C° 0.1 mm 5 m/S 735 mmHg 78%
    12:00 +17°C° 0.1 mm 5 m/S 735 mmHg 73%
    13:00 +17°C° 0.3 mm 5 m/S 735 mmHg 74%
    14:00 +17°C° 0.3 mm 6 m/S 735 mmHg 76%
    15:00 +17°C° 0.3 mm 6 m/S 735 mmHg 77%
    16:00 +17°C° 0.3 mm 5 m/S 735 mmHg 78%
    17:00 +17°C° 0.3 mm 5 m/S 735 mmHg 80%
    18:00 +17°C° 0.3 mm 5 m/S 735 mmHg 81%
    19:00 +15°C° 0.1 mm 5 m/S 735 mmHg 85%
    20:00 +14°C° 0.1 mm 4 m/S 735 mmHg 88%
    21:00 +13°C° 0.1 mm 4 m/S 735 mmHg 92%
    22:00 +12°C° 0 mm 4 m/S 735 mmHg 92%
    23:00 +12°C° 0 mm 5 m/S 735 mmHg 93%

    29 Juni, Samstag

    Zeit Temperatur Niederschläge Wind Luftdruck Luftfeuchtigkeit
    00:00 +12°C° 0 mm 5 m/S 735 mmHg 93%
    01:00 +10°C° 0.1 mm 5 m/S 735 mmHg 93%
    02:00 +10°C° 0.1 mm 5 m/S 735 mmHg 93%
    03:00 +10°C° 0.1 mm 5 m/S 735 mmHg 92%
    04:00 +10°C° 0 mm 5 m/S 735 mmHg 91%
    05:00 +12°C° 0 mm 5 m/S 736 mmHg 91%
    06:00 +12°C° 0 mm 5 m/S 736 mmHg 90%
    07:00 +12°C° 0.1 mm 5 m/S 736 mmHg 86%
    08:00 +13°C° 0.1 mm 5 m/S 737 mmHg 82%
    09:00 +13°C° 0.1 mm 6 m/S 737 mmHg 78%
    10:00 +13°C° 0.1 mm 6 m/S 737 mmHg 76%
    11:00 +13°C° 0.1 mm 6 m/S 738 mmHg 74%
    12:00 +14°C° 0.1 mm 6 m/S 738 mmHg 72%
    13:00 +14°C° 0 mm 6 m/S 739 mmHg 69%
    14:00 +15°C° 0 mm 6 m/S 739 mmHg 67%
    15:00 +16°C° 0 mm 6 m/S 739 mmHg 64%
    16:00 +15°C° 0.1 mm 6 m/S 740 mmHg 68%
    17:00 +14°C° 0.1 mm 6 m/S 740 mmHg 71%
    18:00 +14°C° 0.1 mm 5 m/S 740 mmHg 75%
    19:00 +12°C° 0 mm 4 m/S 740 mmHg 80%
    20:00 +11°C° 0 mm 4 m/S 741 mmHg 85%
    21:00 +9°C° 0 mm 3 m/S 741 mmHg 90%
    22:00 +8°C° 0 mm 3 m/S 741 mmHg 92%
    23:00 +8°C° 0 mm 3 m/S 741 mmHg 93%

    30 Juni, Sonntag

    Zeit Temperatur Niederschläge Wind Luftdruck Luftfeuchtigkeit
    00:00 +7°C° 0 mm 3 m/S 742 mmHg 95%
    01:00 +5°C° 0 mm 3 m/S 742 mmHg 96%
    02:00 +5°C° 0 mm 3 m/S 742 mmHg 96%
    03:00 +5°C° 0 mm 2 m/S 742 mmHg 96%
    04:00 +5°C° 0 mm 3 m/S 742 mmHg 93%
    05:00 +7°C° 0 mm 3 m/S 742 mmHg 91%
    06:00 +8°C° 0 mm 3 m/S 743 mmHg 88%
    07:00 +9°C° 0 mm 3 m/S 743 mmHg 86%
    08:00 +10°C° 0 mm 3 m/S 743 mmHg 84%
    09:00 +11°C° 0 mm 3 m/S 743 mmHg 82%
    10:00 +11°C° 0.1 mm 3 m/S 744 mmHg 84%
    11:00 +11°C° 0.1 mm 3 m/S 744 mmHg 85%
    12:00 +11°C° 0.1 mm 3 m/S 744 mmHg 86%
    13:00 +11°C° 0 mm 3 m/S 745 mmHg 86%
    14:00 +11°C° 0 mm 3 m/S 745 mmHg 85%
    15:00 +12°C° 0 mm 2 m/S 745 mmHg 84%
    16:00 +12°C° 0 mm 2 m/S 746 mmHg 85%
    17:00 +12°C° 0 mm 2 m/S 746 mmHg 86%
    18:00 +11°C° 0 mm 3 m/S 746 mmHg 87%
    19:00 +10°C° 0 mm 2 m/S 746 mmHg 90%
    20:00 +10°C° 0 mm 2 m/S 747 mmHg 92%
    21:00 +9°C° 0 mm 2 m/S 747 mmHg 94%
    22:00 +9°C° 0 mm 2 m/S 747 mmHg 94%
    23:00 +9°C° 0 mm 2 m/S 747 mmHg 95%
    Mehr zeigen